Terminal Aerodrome Forecast
Issued by NWS Denver/Boulder, CO

Home | Current Version | Previous Version | Text Only | Print | Product List | Glossary On
Versions: 1 2 3 4 5 6 7 8 9 10 11 12 13 14 15 16 17 18 19 20 21 22 23 24 25 26 27 28 29 30 31 32 33 34 35 36 37 38 39 40 41 42 43 44 45 46 47 48 49 50
000
FTUS45 KBOU 251402 AAA
TAFDEN
TAF AMD
KDEN 251402Z 2514/2618 33006KT P6SM FEW020 SCT100
     FM251500 02006KT P6SM SCT020 BKN060
     FM251900 06006KT P6SM SCT050 BKN080
     FM252300 09008KT P6SM VCSH SCT060 BKN100
     FM260300 13011KT P6SM SCT050 BKN070
     FM260600 20010KT P6SM SCT060
     FM261500 03006KT P6SM FEW060=

USA.gov is the U.S. government's official web portal to all federal, state and local government web resources and services.